Meteo Giornale » Osservazioni meteo Francia » Beauvais

ore: 04:30 - Osservazioni Meteo Beauvais
Lat. 49° 28' N Lon. 2° 7' E Alt. 109 metri s.l.m.

nebbia Europe/Paris

8 °C

Nebbia

Temp. 24 Ore

7 °C

19 °C

Nord

3.7 Km/h

Dew point 8 °C

Umidità 100 %

Visibilità  0.3 Km

Il sole sorge alle ore 07:41

Il sole tramonta alle ore 19:44

Data e Ora Cielo e Fenomeni T °C DP °C Um. % Pres. hPa Vis. km Vento km/h
Oggi h: 04:30 nebbia Nebbia 8 8 100 1017 0.3 N 3.7
Oggi h: 04:00 nebbia Nebbia 9 9 100 1017 0.2 N 3.7
Oggi h: 03:30 nebbia Banco di Nebbia 8 8 100 1017 0.45 N 3.7
Oggi h: 03:00 nebbia Nebbia 8 8 100 1017 0.35 N 0
Oggi h: 02:00 nebbia Nebbia 7 7 100 1017 0.35 N 3.7
Oggi h: 01:30 nebbia Cielo Invisibile 7 6 93 1017 2 N 0
Oggi h: 01:00 nebbia Cielo Invisibile 8 7 93 1017 1 N 0
Oggi h: 00:30 nebbia Banco di Nebbia 8 8 100 1017 0.5 N 3.7
Oggi h: 00:00 poco_nuvoloso Poco Nuvoloso 9 9 100 1018 4 N 0
Ieri h: 23:30 nebbia Banco di Nebbia 9 8 93 1018 0.9 N 0
Ieri h: 23:00 sereno Sereno 10 9 93 1018 10 N 3.7
Ieri h: 22:30 sereno Sereno 11 11 100 1018 10 N 3.7
Ieri h: 22:00 sereno Sereno 10 9 93 1018 10 N 3.7
Ieri h: 21:30 sereno Sereno 11 9 87 1018 10 N 0
Ieri h: 21:00 sereno Sereno 12 11 93 1018 10 N 5.5
Ieri h: 20:30 sereno Sereno 13 11 87 1018 10 N 3.7
Ieri h: 20:00 sereno Sereno 14 11 82 1017 10 N/NO 7.4
Ieri h: 19:30 sereno Sereno 15 12 82 1017 10 NO 11.1
Ieri h: 19:00 sereno Sereno 16 12 77 1017 10 NO 13
Ieri h: 18:30 sereno Sereno 17 13 77 1017 10 O/NO 14.8
Ieri h: 18:00 poco_nuvoloso Poco Nuvoloso 17 13 77 1017 10 NO 14.8
Ieri h: 17:30 molto_nuvoloso Molto Nuvoloso 18 13 72 1018 10 O/NO 14.8
Ieri h: 16:30 nuvoloso Nuvoloso 19 13 68 1018 10 O/SO 16.7
Ieri h: 16:00 poco_nuvoloso Poco Nuvoloso 19 13 68 1018 10 O 16.7
Ieri h: 14:30 molto_nuvoloso Molto Nuvoloso 19 13 68 1019 10 O/SO 14.8
Ieri h: 14:00 molto_nuvoloso Molto Nuvoloso 18 13 72 1019 10 SO 14.8
Ieri h: 13:30 molto_nuvoloso Molto Nuvoloso 18 13 72 1019 10 S/SO 16.7
Ieri h: 13:00 coperto Coperto 17 13 77 1019 10 SO 13
Ieri h: 12:30 coperto Coperto 17 13 77 1019 10 O 13
Ieri h: 12:00 coperto Coperto 16 13 82 1019 10 O/SO 11.1
Ieri h: 11:30 coperto Coperto 16 13 82 1019 10 O/SO 9.3
Ieri h: 11:00 coperto Coperto 16 13 82 1019 10 O 9.3
Ieri h: 10:30 coperto Coperto 15 14 93 1019 10 O/SO 9.3
Ieri h: 09:30 coperto Coperto 15 14 93 1019 10 O/SO 9.3
Ieri h: 09:00 coperto Coperto 15 14 93 1019 10 O/SO 9.3
Ieri h: 08:30 coperto Coperto 15 14 93 1019 10 SO 9.3
Ieri h: 07:30 coperto Coperto 15 14 93 1019 10 N 5.5
Ieri h: 07:00 coperto Coperto 15 14 93 1019 10 SO 7.4
Ieri h: 06:30 coperto Coperto 15 14 93 1019 10 O/SO 9.3
Ieri h: 06:00 coperto Coperto 14 14 100 1019 10 N 1.8